Location: New York
(40.7127°N, 74.0060°W)
Time: 13:44:14
(UTC-04:00)

Tiangong - Visible Passes

Search period start: 18 July 2024 00:00
Search period end: 28 July 2024 00:00
Orbit: 374 x 377 km, 41.5° (Epoch: 18 July)

Date Brightness Start Highest point End Pass type
(mag) Time Alt. Az. Time Alt. Az. Time Alt. Az.
18 Jul -0.6 03:04:13 31° E 03:04:13 31° E 03:05:59 10° E visible
18 Jul -2.1 04:36:28 10° W 04:39:35 81° N 04:42:41 10° E visible
19 Jul -2.1 03:36:42 65° NW 03:37:02 74° N 03:40:08 10° E visible
20 Jul 0.8 02:37:16 12° E 02:37:16 12° E 02:37:32 10° E visible
20 Jul -2.3 04:09:19 23° W 04:11:08 84° SSW 04:14:14 10° ESE visible
21 Jul -0.4 03:10:03 26° E 03:10:03 26° E 03:11:36 10° E visible
21 Jul -1.7 04:42:07 10° W 04:45:03 41° SSW 04:47:59 10° SE visible
22 Jul -1.6 03:43:10 45° SE 03:43:10 45° SE 03:45:31 10° ESE visible
23 Jul -1.0 04:16:45 25° S 04:16:45 25° S 04:18:52 10° SE visible
24 Jul 0.1 21:19:54 10° S 21:20:12 11° SSE 21:20:12 11° SSE visible
25 Jul -1.0 21:51:54 10° SW 21:53:53 27° S 21:53:53 27° S visible
26 Jul -0.6 20:49:40 10° SSW 20:51:58 19° SSE 20:54:16 10° ESE visible
26 Jul -0.8 22:25:11 10° WSW 22:26:58 31° WSW 22:26:58 31° WSW visible
27 Jul -1.9 21:22:21 10° SW 21:25:20 47° SSE 21:27:31 17° E visible
27 Jul 0.5 22:58:48 10° W 22:59:32 16° W 22:59:32 16° W visible
